When you browse on this site, cookies collect data to enhance your experience and personalize the content and advertising you see.
Visit our Privacy Policy to learn more. By continuing to use the site, you agree to this use of cookies and data.
  • In United Kingdom
  • List of Countries
  • For 7 days
  • Water Temperature
  • Weather Map
  • Weather Widgets
  • user-avatar
    Login

    Hourly Weather Liverpool

    Today, 19 August, Monday

    Time Temperature Precipitation Wind Pressure Humidity
    00:00 +13°C° 0.3 mm 5 mps 753 mmHg 86%
    01:00 +13°C° 0.1 mm 5 mps 753 mmHg 87%
    02:00 +13°C° 0.1 mm 5 mps 753 mmHg 88%
    03:00 +13°C° 0.1 mm 5 mps 754 mmHg 89%
    04:00 +12°C° 0 mm 5 mps 754 mmHg 89%
    05:00 +12°C° 0 mm 5 mps 754 mmHg 88%
    06:00 +12°C° 0 mm 5 mps 755 mmHg 88%
    07:00 +13°C° 0.1 mm 5 mps 755 mmHg 81%
    08:00 +15°C° 0.1 mm 5 mps 756 mmHg 74%
    09:00 +16°C° 0.1 mm 5 mps 756 mmHg 67%
    10:00 +16°C° 0.4 mm 6 mps 757 mmHg 68%
    11:00 +17°C° 0.4 mm 6 mps 757 mmHg 69%
    12:00 +17°C° 0.4 mm 7 mps 757 mmHg 69%
    13:00 +17°C° 0.1 mm 7 mps 757 mmHg 65%
    14:00 +18°C° 0.1 mm 7 mps 757 mmHg 60%
    15:00 +18°C° 0.1 mm 7 mps 758 mmHg 55%
    16:00 +17°C° 0.1 mm 6 mps 758 mmHg 59%
    17:00 +16°C° 0.1 mm 6 mps 758 mmHg 64%
    18:00 +16°C° 0.1 mm 6 mps 759 mmHg 68%
    19:00 +15°C° 0.1 mm 5 mps 759 mmHg 72%
    20:00 +14°C° 0.1 mm 5 mps 760 mmHg 76%
    21:00 +12°C° 0.1 mm 5 mps 760 mmHg 79%
    22:00 +12°C° 0 mm 5 mps 760 mmHg 80%
    23:00 +12°C° 0 mm 5 mps 761 mmHg 81%

    Tomorrow, 20 August, Tuesday

    Time Temperature Precipitation Wind Pressure Humidity
    00:00 +10°C° 0 mm 5 mps 761 mmHg 82%
    01:00 +10°C° 0 mm 5 mps 761 mmHg 82%
    02:00 +10°C° 0 mm 5 mps 761 mmHg 83%
    03:00 +10°C° 0 mm 5 mps 762 mmHg 84%
    04:00 +10°C° 0 mm 5 mps 762 mmHg 84%
    05:00 +10°C° 0 mm 6 mps 762 mmHg 84%
    06:00 +10°C° 0 mm 6 mps 762 mmHg 83%
    07:00 +11°C° 0 mm 6 mps 763 mmHg 79%
    08:00 +13°C° 0 mm 6 mps 763 mmHg 75%
    09:00 +14°C° 0 mm 6 mps 764 mmHg 71%
    10:00 +15°C° 0 mm 6 mps 764 mmHg 66%
    11:00 +16°C° 0 mm 5 mps 764 mmHg 61%
    12:00 +17°C° 0 mm 5 mps 764 mmHg 56%
    13:00 +17°C° 0 mm 5 mps 764 mmHg 57%
    14:00 +17°C° 0 mm 5 mps 765 mmHg 58%
    15:00 +18°C° 0 mm 4 mps 765 mmHg 60%
    16:00 +18°C° 0.1 mm 4 mps 765 mmHg 66%
    17:00 +17°C° 0.1 mm 4 mps 765 mmHg 71%
    18:00 +17°C° 0.1 mm 4 mps 765 mmHg 77%
    19:00 +16°C° 0.1 mm 3 mps 765 mmHg 80%
    20:00 +14°C° 0.1 mm 3 mps 766 mmHg 83%
    21:00 +14°C° 0.1 mm 3 mps 766 mmHg 85%
    22:00 +13°C° 0 mm 3 mps 766 mmHg 86%
    23:00 +13°C° 0 mm 3 mps 766 mmHg 87%

    Day after tomorrow, 21 August, Wednesday

    Time Temperature Precipitation Wind Pressure Humidity
    00:00 +13°C° 0 mm 3 mps 766 mmHg 88%
    01:00 +13°C° 0 mm 3 mps 766 mmHg 88%
    02:00 +13°C° 0 mm 3 mps 766 mmHg 88%
    03:00 +13°C° 0 mm 3 mps 766 mmHg 88%
    04:00 +13°C° 0 mm 3 mps 766 mmHg 88%
    05:00 +13°C° 0 mm 3 mps 766 mmHg 88%
    06:00 +13°C° 0 mm 3 mps 765 mmHg 88%
    07:00 +14°C° 0.1 mm 3 mps 765 mmHg 83%
    08:00 +15°C° 0.1 mm 4 mps 765 mmHg 78%
    09:00 +17°C° 0.1 mm 4 mps 765 mmHg 74%
    10:00 +18°C° 0.1 mm 4 mps 765 mmHg 69%
    11:00 +19°C° 0.1 mm 5 mps 764 mmHg 64%
    12:00 +20°C° 0.1 mm 5 mps 764 mmHg 59%
    13:00 +20°C° 0.3 mm 5 mps 764 mmHg 62%
    14:00 +19°C° 0.3 mm 5 mps 763 mmHg 65%
    15:00 +19°C° 0.3 mm 6 mps 763 mmHg 68%
    16:00 +17°C° 0.3 mm 6 mps 763 mmHg 70%
    17:00 +17°C° 0.3 mm 5 mps 763 mmHg 72%
    18:00 +16°C° 0.3 mm 5 mps 762 mmHg 74%
    19:00 +15°C° 0.2 mm 5 mps 762 mmHg 77%
    20:00 +15°C° 0.2 mm 5 mps 762 mmHg 79%
    21:00 +14°C° 0.2 mm 5 mps 762 mmHg 82%
    22:00 +14°C° 0.3 mm 5 mps 762 mmHg 83%
    23:00 +14°C° 0.3 mm 5 mps 762 mmHg 85%

    22 August, Thursday

    Time Temperature Precipitation Wind Pressure Humidity
    00:00 +14°C° 0.3 mm 5 mps 762 mmHg 86%
    01:00 +13°C° 0.1 mm 4 mps 762 mmHg 87%
    02:00 +13°C° 0.1 mm 4 mps 762 mmHg 88%
    03:00 +12°C° 0.1 mm 4 mps 762 mmHg 89%
    04:00 +12°C° 0 mm 4 mps 763 mmHg 88%
    05:00 +12°C° 0 mm 4 mps 763 mmHg 87%
    06:00 +11°C° 0 mm 3 mps 763 mmHg 87%
    07:00 +13°C° 0 mm 4 mps 764 mmHg 80%
    08:00 +14°C° 0 mm 4 mps 764 mmHg 73%
    09:00 +15°C° 0 mm 4 mps 764 mmHg 66%
    10:00 +17°C° 0 mm 4 mps 764 mmHg 62%
    11:00 +19°C° 0 mm 4 mps 764 mmHg 58%
    12:00 +20°C° 0 mm 4 mps 764 mmHg 55%
    13:00 +20°C° 0 mm 4 mps 763 mmHg 56%
    14:00 +20°C° 0 mm 5 mps 763 mmHg 57%
    15:00 +20°C° 0 mm 5 mps 763 mmHg 58%
    16:00 +20°C° 0 mm 5 mps 763 mmHg 63%
    17:00 +20°C° 0 mm 5 mps 763 mmHg 68%
    18:00 +20°C° 0 mm 4 mps 763 mmHg 72%
    19:00 +19°C° 0 mm 5 mps 763 mmHg 75%
    20:00 +19°C° 0 mm 5 mps 763 mmHg 78%
    21:00 +17°C° 0 mm 5 mps 763 mmHg 80%
    22:00 +17°C° 0 mm 5 mps 763 mmHg 81%
    23:00 +18°C° 0 mm 4 mps 763 mmHg 82%

    23 August, Friday

    Time Temperature Precipitation Wind Pressure Humidity
    00:00 +17°C° 0 mm 4 mps 763 mmHg 84%
    01:00 +17°C° 0 mm 4 mps 763 mmHg 85%
    02:00 +17°C° 0 mm 4 mps 763 mmHg 86%
    03:00 +17°C° 0 mm 4 mps 763 mmHg 88%
    04:00 +15°C° 0 mm 4 mps 763 mmHg 88%
    05:00 +15°C° 0 mm 4 mps 763 mmHg 88%
    06:00 +15°C° 0 mm 4 mps 763 mmHg 88%
    07:00 +18°C° 0 mm 4 mps 763 mmHg 82%
    08:00 +19°C° 0 mm 5 mps 763 mmHg 76%
    09:00 +20°C° 0 mm 5 mps 763 mmHg 71%
    10:00 +21°C° 0 mm 5 mps 763 mmHg 68%
    11:00 +22°C° 0 mm 5 mps 763 mmHg 65%
    12:00 +23°C° 0 mm 5 mps 763 mmHg 61%
    13:00 +23°C° 0.1 mm 4 mps 763 mmHg 62%
    14:00 +23°C° 0.1 mm 4 mps 762 mmHg 63%
    15:00 +23°C° 0.1 mm 4 mps 762 mmHg 64%
    16:00 +22°C° 0.1 mm 4 mps 762 mmHg 67%
    17:00 +22°C° 0.1 mm 3 mps 762 mmHg 70%
    18:00 +21°C° 0.1 mm 3 mps 762 mmHg 73%
    19:00 +20°C° 0 mm 2 mps 762 mmHg 77%
    20:00 +19°C° 0 mm 2 mps 762 mmHg 82%
    21:00 +17°C° 0 mm 2 mps 762 mmHg 86%
    22:00 +17°C° 0 mm 2 mps 762 mmHg 86%
    23:00 +17°C° 0 mm 2 mps 762 mmHg 87%

    24 August, Saturday

    Time Temperature Precipitation Wind Pressure Humidity
    00:00 +16°C° 0 mm 2 mps 762 mmHg 87%
    01:00 +16°C° 0 mm 2 mps 762 mmHg 87%
    02:00 +16°C° 0 mm 2 mps 762 mmHg 88%
    03:00 +16°C° 0 mm 2 mps 761 mmHg 89%
    04:00 +16°C° 0 mm 2 mps 761 mmHg 89%
    05:00 +16°C° 0 mm 2 mps 761 mmHg 89%
    06:00 +16°C° 0 mm 2 mps 761 mmHg 90%
    07:00 +17°C° 0 mm 3 mps 761 mmHg 84%
    08:00 +18°C° 0 mm 3 mps 761 mmHg 79%
    09:00 +20°C° 0 mm 4 mps 761 mmHg 73%
    10:00 +21°C° 0 mm 4 mps 760 mmHg 67%
    11:00 +22°C° 0 mm 4 mps 760 mmHg 61%
    12:00 +25°C° 0 mm 4 mps 760 mmHg 54%
    13:00 +25°C° 0.2 mm 4 mps 759 mmHg 57%
    14:00 +25°C° 0.2 mm 4 mps 759 mmHg 60%
    15:00 +25°C° 0.2 mm 4 mps 758 mmHg 63%
    16:00 +23°C° 0.4 mm 4 mps 758 mmHg 65%
    17:00 +22°C° 0.4 mm 4 mps 758 mmHg 68%
    18:00 +21°C° 0.4 mm 3 mps 758 mmHg 71%
    19:00 +20°C° 0.2 mm 3 mps 758 mmHg 74%
    20:00 +19°C° 0.2 mm 3 mps 758 mmHg 78%
    21:00 +18°C° 0.2 mm 2 mps 758 mmHg 81%
    22:00 +17°C° 0 mm 2 mps 758 mmHg 82%
    23:00 +16°C° 0 mm 3 mps 758 mmHg 83%
    Show more